Retour au catalogue

STARLINK-32025

ActifCommunicationsVLEO
NORAD 60138·PAYLOAD·🇺🇸 United States

Lancé Jun 27, 2024 depuis Cape Canaveral Space Force Station

Loading…

Prochains Passages (prochaines 24 heures)

TLE

FraisSource: CelesTrak SupGP

Époque: Sep 14, 2026, 22:44 UTC

1 60138C 24120D   26257.94770833 -.00065303  00000+0 -19293-2 0  2571
2 60138  53.1567 157.3491 0001351  87.4043 201.8065 15.34423870    13

Suivez STARLINK-32025 en temps réel avec AllMySat

Download on the App Store